RH
32 35 58 69 64 67 77 70 34 32 42 71 78 72 83 90 82 93 97 96 85 85 85 83 80 77 75 58 61 57 56 63 64 83 78 72 70 65 59 62 58 60 69
34 32 46 54 64 73 72 70 55 21 27 71 87 85 92 83 80 96 97 96 90 88 79 80 74 74 75 56 59 50 39 35 35 49 55 53 66 64 65 53 53 51 44
36 34 36 51 60 67 70 74 46 15 18 46 95 95 90 83 82 90 97 96 95 94 80 80 90 96 96 86 57 55 44 49 55 64 63 56 57 60 63 63 64 80 68
40 46 45 48 52 65 83 83 78 52 30 17 79 91 92 88 76 92 97 97 97 96 96 95 93 88 88 90 56 48 54 71 92 89 82 76 79 78 80 89 88 81 75
29 38 44 46 53 64 59 70 69 59 36 15 14 56 79 89 98 99 96 93 88 94 95 96 98 98 96 87 87 84 72 82 83 87 88 90 74 50 88 61 35 31 26
17 16 28 27 37 32 37 49 43 43 46 36 17 14 21 47 50 72 93 99 99 93 94 92 97 97 96 87 78 74 93 94 76 63 80 96 59 40 41 30 19 19 20
65 60 59 47 34 34 41 56 51 56 53 50 52 54 29 16 19 29 30 49 69 74 50 29 18 30 42 34 27 27 22 48 30 21 14 21 19 19 21 21 21 23 24
70 68 60 53 69 75 75 75 70 71 74 76 86 83 59 40 22 23 24 23 20 19 16 13 12 13 16 18 23 27 29 29 27 27 29 28 28 27 27 26 23 22 21
78 68 63 54 56 61 62 57 60 77 81 78 86 93 90 88 74 31 28 26 26 30 29 26 24 21 22 26 27 27 28 28 27 26 26 25 24 23 22 22 22 23 26
61 68 62 64 70 75 63 62 65 72 69 72 75 77 80 78 78 81 80 40 27 27 30 29 28 29 25 24 24 24 29 29 29 29 30 29 29 28 28 27 27 27 27
33 44 52 62 82 80 64 75 89 84 72 83 77 88 86 76 75 78 80 83 86 45 29 30 33 30 31 27 24 24 27 30 34 37 37 36 34 32 31 31 32 32 30
18 24 47 77 93 94 96 93 97 86 70 76 75 62 59 70 81 75 69 72 79 81 77 64 38 38 36 32 27 26 30 33 33 34 33 33 34 36 37 36 30 21 17
63 81 94 95 96 91 95 95 96 96 97 90 83 54 55 53 48 49 41 41 59 78 93 96 95 94 55 46 38 32 32 37 37 34 38 43 31 34 23 19 15 11 6
92 97 97 92 96 90 92 96 95 88 95 92 44 40 38 33 38 36 32 36 38 70 89 98 96 96 97 84 63 59 72 66 69 63 51 44 56 59 32 21 7 7 10
72 63 57 49 97 94 91 90 96 96 89 78 46 39 38 31 32 36 35 41 43 51 83 98 97 97 96 96 92 94 97 90 86 90 94 88 81 49 27 25 46 52 46
57 54 61 73 75 75 93 87 78 61 62 57 56 57 52 48 49 53 43 49 52 56 72 95 96 97 97 96 92 90 95 91 96 87 80 69 61 55 54 56 57 53 38
54 55 70 69 76 63 93 55 61 45 38 50 55 58 58 56 61 68 67 57 57 46 46 52 71 93 96 89 98 97 96 90 74 75 79 78 73 71 71 66 46 29 22
55 36 52 59 71 75 99 99 82 41 35 51 56 61 64 67 69 73 82 77 72 54 44 42 60 74 88 96 95 91 86 83 80 82 78 59 44 34 29 26 24 22 21
35 49 50 66 87 94 96 97 85 56 52 57 62 65 73 82 80 80 86 84 78 53 47 55 64 73 75 73 71 70 67 65 61 57 55 48 40 33 27 24 20 17 15
59 52 48 97 83 89 95 95 92 75 75 88 93 89 90 94 90 88 84 81 72 62 57 60 65 71 73 70 68 66 64 62 60 59 56 54 51 46 43 36 30 29 29
50 52 52 90 90 95 99 96 97 92 90 92 94 95 96 97 96 94 82 78 64 48 47 51 59 65 62 57 58 60 62 61 61 59 54 49 41 42 47 47 39 37 43
54 55 76 92 87 92 98 96 96 97 93 91 96 97 97 97 93 75 70 64 63 60 53 48 44 42 36 31 25 21 26 30 32 32 29 31 40 56 66 67 55 44 51
33 25 28 39 36 54 72 89 96 96 95 94 94 92 91 84 51 28 27 34 40 41 40 41 44 43 46 51 49 46 45 44 40 37 38 43 50 61 73 80 79 80 82
20 28 28 30 36 51 65 82 69 88 94 91 94 96 95 93 87 72 53 46 49 60 65 74 70 71 67 53 46 46 47 49 52 60 64 72 86 84 73 68 75 78 78
29 33 35 40 50 63 81 79 83 86 92 89 91 92 96 94 90 90 91 90 89 92 87 76 64 59 56 59 65 71 66 58 65 77 76 68 87 86 72 54 84 98 98
19 19 20 22 26 32 47 72 80 83 74 73 77 83 97 100 99 98 92 88 87 84 82 82 78 71 65 72 73 65 79 93 99 89 74 56 66 83 68 79 95 88 89
Wind_Speed
5 8 10 11 5 4 4 7 6 9 9 11 15 15 12 11 16 21 32 34 28 23 22 21 18 16 14 12 11 12 12 12 13 13 13 13 11 13 12 11 10 8 7
6 9 11 10 6 7 7 7 7 9 7 7 5 7 9 8 4 17 35 35 29 25 24 23 22 21 19 15 14 14 11 11 13 13 12 10 11 10 11 10 9 10 10
7 9 10 9 9 9 9 8 9 9 8 9 8 8 10 8 3 5 24 29 32 31 28 23 20 21 19 17 16 16 15 14 14 13 12 10 10 11 12 13 13 13 13
5 6 10 11 11 10 12 12 13 12 8 3 4 7 7 9 8 7 14 17 26 27 20 23 21 22 23 19 19 19 17 17 15 15 13 12 13 15 16 14 14 13 14
9 8 10 11 12 13 14 13 13 11 9 9 5 2 3 5 5 11 15 17 17 17 18 18 19 21 21 19 21 19 18 17 14 17 15 16 15 12 19 19 17 17 20
13 11 11 12 13 13 12 11 12 12 11 11 9 8 7 6 7 7 9 13 19 19 18 19 20 22 18 19 16 17 21 25 19 18 21 23 21 23 24 24 25 26 26
12 14 14 16 16 15 12 12 14 15 16 16 15 15 12 12 12 12 12 13 15 16 17 18 18 19 19 21 21 20 19 21 25 26 23 25 26 27 29 30 31 31 31
15 13 13 13 12 13 13 14 18 20 20 21 18 17 18 18 18 19 18 18 20 20 20 20 20 21 21 21 21 21 22 23 24 25 26 27 30 32 33 33 34 35 35
18 20 18 15 15 16 18 18 18 20 17 18 21 20 19 18 22 25 24 25 25 24 24 25 25 25 24 24 23 23 25 27 27 28 29 31 33 34 35 35 35 35 36
24 26 22 22 20 22 25 23 20 15 16 17 17 17 18 19 20 21 24 31 32 33 31 30 30 29 28 29 29 28 28 29 31 32 33 33 35 37 37 38 38 39 40
27 31 32 32 33 30 28 24 24 20 15 13 14 17 18 20 20 21 26 29 32 39 39 37 34 34 34 34 33 31 31 32 33 35 36 36 37 38 39 41 42 43 44
33 36 38 40 43 37 29 27 27 25 21 22 20 21 20 17 20 19 19 25 32 37 40 42 42 40 38 38 38 36 35 35 35 36 37 37 38 39 41 43 43 43 45
36 40 46 46 38 34 23 23 23 24 24 22 18 20 20 20 18 21 24 24 27 36 41 42 40 40 43 41 40 40 38 35 34 38 38 38 36 36 41 41 42 42 42
49 36 37 36 46 27 19 22 20 20 19 16 17 20 24 24 19 21 23 26 26 27 34 38 38 42 41 44 42 43 45 43 43 42 39 38 40 44 40 40 41 40 40
42 47 41 42 17 20 18 17 20 20 22 17 20 23 25 26 24 23 22 22 24 27 32 38 36 39 43 45 46 41 40 36 37 41 42 45 41 42 42 40 40 42 44
38 36 39 37 34 32 21 20 21 24 26 28 27 26 25 26 26 27 24 24 22 17 19 33 35 39 44 49 50 47 32 33 37 38 33 34 37 40 43 43 45 47 47
41 39 40 41 35 36 34 27 29 30 31 30 30 30 29 31 30 29 25 26 26 24 24 24 27 32 33 29 39 43 40 36 35 35 37 42 46 47 48 48 48 48 48
43 44 43 44 46 49 40 45 41 38 36 32 32 33 34 34 34 31 28 29 29 28 28 26 26 26 27 31 32 32 33 35 36 39 39 40 42 43 44 45 45 46 45
38 39 42 47 42 51 41 37 33 37 36 36 35 38 38 37 36 33 31 31 31 30 29 29 29 29 30 31 33 35 36 37 38 40 41 42 43 44 43 42 43 43 44
33 34 35 29 33 16 29 37 33 37 41 40 38 39 38 36 35 35 33 33 33 32 31 33 34 34 35 36 36 37 38 38 38 40 42 43 44 44 44 44 44 44 43
33 32 30 31 39 34 35 36 35 42 41 39 41 41 40 36 35 36 35 35 35 35 33 34 34 35 36 38 40 41 42 43 45 46 46 47 48 47 46 44 45 44 42
24 25 24 26 27 21 32 36 40 38 42 43 44 41 36 32 34 36 36 37 36 35 36 37 38 39 40 41 42 43 44 45 46 47 47 47 47 46 46 46 46 44 42
26 28 30 30 29 26 24 22 24 26 33 33 29 28 29 34 35 36 37 38 39 40 41 42 43 44 43 42 43 44 44 45 45 44 46 47 47 45 45 45 44 42 42
31 29 30 31 31 30 28 27 28 29 32 34 35 34 36 38 36 37 40 42 42 42 43 45 46 45 46 45 45 46 46 45 45 44 44 43 42 42 42 45 44 42 42
31 29 29 28 28 29 29 28 28 29 31 31 33 37 39 39 38 39 40 42 44 45 46 47 48 49 48 47 47 46 45 46 46 45 43 44 47 48 48 47 45 43 44
33 33 34 34 32 32 34 33 35 35 36 38 38 38 39 40 40 41 44 45 46 47 47 47 49 49 50 48 48 46 47 45 44 46 47 46 47 46 46 45 45 45 46
Wind_Direction
269 264 250 239 202 230 252 277 271 295 308 271 262 256 239 266 266 222 211 198 197 202 203 205 210 206 211 211 203 204 201 195 200 207 208 210 207 208 205 207 216 223 240
282 257 245 247 231 214 245 257 271 287 340 308 260 240 246 254 290 222 205 197 191 200 206 204 205 205 208 212 209 204 205 214 205 201 207 203 200 206 208 216 216 221 225
279 268 259 253 244 230 246 258 266 289 324 359 249 241 261 256 246 240 207 216 206 202 208 207 213 218 207 202 211 214 208 213 218 218 217 214 213 219 224 228 230 240 246
260 269 262 252 252 250 253 257 266 276 307 332 302 251 249 256 239 203 196 205 206 201 204 219 214 220 219 206 208 213 217 218 225 216 223 227 236 237 237 244 236 238 241
263 243 252 260 255 251 258 262 263 270 279 279 271 216 168 149 170 201 215 215 206 214 219 217 222 227 214 217 224 227 227 219 231 230 218 237 230 243 241 245 246 240 242
273 257 258 261 259 260 260 263 267 269 272 280 284 271 235 208 192 185 166 178 184 191 197 204 208 221 218 227 226 226 237 224 232 224 230 230 234 245 245 249 251 254 256
281 269 263 261 264 266 265 277 276 274 277 272 270 272 263 254 242 228 213 204 209 206 210 221 224 224 223 225 228 231 229 227 233 233 238 238 239 241 243 247 251 256 256
272 270 269 262 260 256 255 260 265 271 271 267 265 265 261 253 249 248 243 235 235 231 227 230 233 237 238 237 236 234 237 238 236 239 241 243 247 250 250 250 249 249 252
275 275 275 270 260 257 257 267 280 266 259 264 251 245 249 251 249 249 251 251 248 245 245 243 239 236 236 240 243 242 242 245 248 249 249 250 251 251 251 251 253 256 259
274 277 276 273 261 253 258 260 258 247 247 253 254 257 259 259 256 252 248 247 250 251 247 245 245 248 245 241 238 240 244 250 254 256 255 254 254 255 257 259 261 261 262
266 269 269 266 254 247 253 255 228 221 232 248 255 261 262 258 257 261 253 251 249 247 248 246 247 248 249 251 251 249 248 251 253 255 257 258 260 263 264 265 267 268 270
270 270 266 259 237 243 234 230 223 213 219 230 256 267 266 267 267 274 268 264 255 245 244 247 248 246 247 250 253 253 254 256 259 261 263 264 265 266 268 269 270 271 272
273 263 254 249 230 226 241 229 239 228 230 235 261 271 269 268 268 275 278 277 266 251 250 252 251 250 248 250 254 256 254 257 265 267 264 264 265 271 274 273 274 273 273
280 277 246 301 265 215 225 242 251 266 271 247 273 277 276 272 270 275 276 279 277 266 246 249 254 255 252 248 248 254 257 255 258 260 258 258 257 268 276 277 274 275 277
287 290 298 309 279 222 226 248 257 260 269 258 263 271 276 277 279 281 285 289 285 270 254 245 250 257 254 255 253 253 257 258 262 265 266 265 266 271 271 272 274 280 283
289 291 290 291 292 293 271 266 258 263 265 268 271 271 272 274 277 281 277 284 283 275 260 247 249 260 252 257 257 254 270 269 267 266 263 268 271 272 274 274 280 280 279
282 287 286 286 289 285 272 257 258 260 261 265 269 274 276 285 286 286 275 271 275 274 269 258 251 251 252 261 272 259 269 272 270 267 267 270 270 271 274 274 275 276 277
281 286 287 286 276 279 250 259 260 259 257 263 268 272 277 279 282 282 273 274 273 271 267 262 254 251 256 258 258 262 264 266 269 273 275 275 276 276 276 276 277 277 277
278 283 289 289 299 277 252 243 239 253 260 263 266 270 273 277 277 275 271 273 276 273 267 265 262 258 259 262 265 267 269 270 272 274 275 275 275 275 275 277 277 278 277
279 286 288 273 294 276 231 248 244 253 258 260 264 266 267 268 268 269 271 272 269 266 263 261 263 266 269 272 272 271 272 273 273 272 273 274 274 276 278 279 280 281 280
279 282 283 274 281 278 271 252 244 246 253 258 260 262 259 260 263 266 266 265 265 267 266 266 265 264 264 266 268 270 271 274 275 276 277 278 279 280 280 280 279 278 277
287 292 288 281 283 284 264 244 243 250 254 257 263 257 252 257 260 261 262 263 265 268 270 271 272 272 272 273 273 272 272 274 276 276 276 277 277 277 278 279 280 280 279
286 288 288 286 287 285 288 283 275 274 263 257 254 255 257 257 261 265 265 266 267 269 271 273 273 272 273 275 277 277 277 276 276 276 276 277 278 278 277 275 274 276 277
285 283 279 279 280 279 277 274 275 279 280 275 270 263 258 259 261 264 266 268 271 272 271 271 273 276 277 277 277 277 276 275 276 276 277 275 273 276 276 278 277 275 273
280 278 277 276 276 277 277 274 271 270 271 271 265 265 269 270 270 270 271 271 271 272 274 275 277 276 277 278 277 275 277 278 274 272 274 274 274 274 277 278 272 273 273
282 283 282 282 278 274 274 271 269 273 272 273 272 272 270 269 270 272 273 272 272 273 273 273 273 275 277 274 276 276 274 273 272 273 275 275 273 272 274 272 272 272 271